Location: Colm�ry
(47.3474°N, 3.2501°E)
Time: 12:08:15
(UTC+00:00)

Daily predictions for brighter satellites

Satellite Brightness Start Highest point End
(mag) Time Altitude Azimuth Time Altitude Azimuth Time Altitude Azimuth
NOSS 3-1 (C) 4.1 17:03:51 10° NW 17:11:14 75° NE 17:19:53 10° SE
Cosmos 1937 Rocket 4.2 17:11:02 10° SSE 17:15:46 34° ESE 17:20:32 10° NE
Aureole 3 2.6 17:14:02 10° N 17:17:05 58° ENE 17:20:01 10° SSE
Okean 1-7 Rocket 3.7 17:13:11 10° S 17:17:45 89° E 17:22:22 10° N
USA 290 3.5 17:18:28 10° N 17:21:00 21° ENE 17:23:30 10° ESE
NOSS 2-1 (C) 2.9 17:20:06 10° SSW 17:23:24 66° SE 17:26:51 10° NE
Cosmos 1833 Rocket 3.1 17:19:28 10° NNW 17:24:48 41° NE 17:30:06 10° SE
Lacrosse 5 4.5 17:22:54 10° WNW 17:26:57 24° SW 17:30:58 10° S
H-2A R/B 2.9 17:24:18 10° ESE 17:28:33 28° ENE 17:32:55 10° N
NOSS 2-1 (D) 2.8 17:26:01 10° SW 17:29:20 78° SE 17:32:49 10° NE
Meteor 1-21 Rocket 4.2 17:23:52 10° S 17:29:21 72° E 17:34:57 10° NNE
Cosmos 1939 Rocket 2.9 17:26:34 10° SSE 17:30:36 64° ENE 17:34:35 10° N
Cosmos 2344 4.3 17:22:01 10° NW 17:31:00 65° NE 17:43:26 10° SE
Helios 1A Rocket 4.3 17:28:11 10° ESE 17:31:08 19° ENE 17:34:05 10° NNE
H-2A R/B 2.1 17:26:47 10° NNE 17:31:12 88° WNW 17:35:28 10° SSW
USA 229 DEB 3.9 17:25:27 10° NW 17:32:44 74° NE 17:40:25 10° SE
USA 229 3.9 17:25:34 10° NW 17:32:51 74° NE 17:40:32 10° SE
Cosmos 44 3.5 17:28:31 10° SW 17:33:21 78° NW 17:38:33 10° NE
Cosmos 1602 Rocket 3.7 17:29:21 10° S 17:33:34 51° E 17:37:51 10° NNE
CZ-3B R/B 1.8 17:31:39 10° NW 17:34:05 61° NNE 17:40:35 10° ESE
Cosmos 2026 Rocket 4.3 17:29:06 10° SSE 17:34:52 45° E 17:40:46 10° NNE
SeaSat 1 3.8 17:30:24 10° NNE 17:34:56 37° NW 17:39:26 10° WSW
Feng Yun 1-1 Rocket 4.3 17:30:34 10° SSE 17:35:58 63° ENE 17:41:33 10° N
SJ 16-02 2.4 17:32:20 10° SW 17:36:35 47° WNW 17:40:52 10° N
Cosmos 2112 Rocket 4.1 17:32:23 10° NNW 17:37:39 86° WSW 17:42:50 10° SSE
Cosmos 990 Rocket 4.0 17:34:49 10° SSW 17:40:01 84° ESE 17:45:14 10° NNE
YAOGAN 1 3.3 17:36:16 10° SE 17:40:01 30° ENE 17:43:48 10° N
Cosmos 1689 Rocket 3.7 17:41:34 15° E 17:41:39 15° E 17:43:24 10° SE
Cosmos 1844 Rocket 3.6 17:36:19 10° SW 17:41:48 49° NW 17:47:18 10° NNE
H-2A R/B 4.1 17:38:07 10° SSW 17:42:03 40° W 17:46:08 10° NNW
Aureole 3 Rocket 2.9 17:39:41 10° N 17:42:49 41° E 17:46:36 10° SSE
COSMOS 2406 3.2 17:38:31 10° NNW 17:44:17 64° ENE 17:50:00 10° SE
Cosmos 2082 Rocket 2.8 17:39:19 10° NNW 17:44:33 35° NE 17:49:44 10° ESE
Cosmos 1844 4.4 17:40:14 10° SW 17:45:48 56° WNW 17:51:30 10° NNE
Cosmos 1703 3.2 17:43:41 10° S 17:47:34 85° E 17:51:28 10° N
NOSS 3-1 (A) 4.1 17:40:58 10° NW 17:48:25 79° NE 17:57:05 10° SE
Cosmos 1825 Rocket 4.3 17:44:51 10° SSE 17:48:42 31° E 17:52:36 10° NNE
X-37B 1.4 17:45:51 10° W 17:48:55 47° SSW 17:51:36 13° ESE
IRS-1C Rocket 4.1 17:44:20 10° SSE 17:49:29 60° ENE 17:54:40 10° N
ISS -2.9 17:48:39 10° WNW 17:51:51 38° N 17:53:50 19° ENE
Cosmos 1812 Rocket 3.5 17:47:39 10° N 17:52:04 81° E 17:56:24 10° SSE
ATLAS 2AS CENTAUR R/B 4.4 17:48:52 10° WNW 17:54:59 24° N 18:00:54 10° NE
Okean O Rocket 3.0 17:51:11 10° S 17:55:24 43° W 17:59:38 10° NNW
ATLAS 5 CENTAUR R/B 4.0 17:54:49 10° NW 17:57:16 14° N 17:59:52 10° NNE
CZ-4 R/B 1.5 17:55:42 10° SSE 17:59:36 50° ENE 18:03:27 10° N
Iridium 4 Rocket 3.4 17:55:01 10° N 18:00:25 64° E 18:05:17 10° SSE
ERS-2 2.5 17:58:38 10° NNE 18:02:03 41° E 18:05:31 10° S
SKYMED 2 3.5 17:57:43 10° NNE 18:02:05 81° ESE 18:06:26 10° S
Cosmos 2195 Rocket 4.5 17:56:07 10° S 18:02:26 82° E 18:08:48 10° N
CSL-04 Rocket 4.2 17:59:08 10° SE 18:04:06 38° ENE 18:09:09 10° N
Okean-O 2.7 18:02:45 10° SSE 18:07:05 56° ENE 18:11:27 10° N
CZ-4C R/B 4.2 18:03:19 10° NW 18:07:40 19° N 18:11:46 12° NE
S3M 4.3 18:02:42 10° N 18:08:24 39° ENE 18:14:06 10° SE
Cosmos 1428 Rocket 4.5 18:04:09 10° S 18:10:26 79° E 18:16:47 10° N
USA 234 4.1 18:05:52 16° ENE 18:10:28 38° N 18:16:24 10° WNW
Cosmos 1340 3.1 18:07:24 10° SSW 18:11:07 63° WNW 18:14:52 10° N
Cosmos 1346 Rocket 2.9 18:07:49 10° S 18:11:37 50° E 18:15:11 12° NNE
Cosmos 2278 Rocket 2.2 18:06:20 10° SSW 18:11:55 63° ESE 18:17:11 12° NNE
Cosmos 1953 Rocket 4.0 18:11:08 10° SSE 18:15:07 37° E 18:17:58 17° NNE
CZ-2C R/B 3.4 18:10:08 10° S 18:15:38 78° WSW 18:21:25 10° NNW
SWARM A 4.5 18:14:46 10° SSE 18:17:56 43° E 18:18:52 33° NE
Cosmos 2292 Rocket 4.0 18:15:30 10° SSE 18:19:53 35° E 18:20:41 32° ENE
SAR-Lupe-4 3.6 18:17:50 21° NNE 18:20:01 55° ESE 18:23:32 10° S
Cosmos 44 Rocket 4.0 18:17:41 10° S 18:22:06 34° ESE 18:23:19 30° E
Cosmos 405 3.7 18:18:47 10° NNW 18:22:15 55° W 18:25:42 10° S
NOSS 2-1 (E) 4.3 18:21:35 10° WSW 18:24:40 35° NW 18:26:47 18° NNE
ARGOS 3.1 18:23:54 10° SSE 18:29:10 62° ENE 18:34:31 10° N
TELKOM 3 4.1 18:27:04 10° WNW 18:28:35 38° WNW 18:28:35 38° WNW
Cosmos 1869 3.6 18:26:48 10° N 18:30:11 42° ENE 18:30:11 42° ENE
Meteor 2-19 Rocket 4.4 18:25:08 10° S 18:31:18 88° E 18:37:31 10° N
PSLV R/B 3.9 18:29:08 10° NNE 18:33:23 86° E 18:37:35 10° SSW
Cosmos 372 Rocket 3.9 18:30:23 10° SSW 18:35:35 84° ESE 18:39:58 15° NNE
SAR-Lupe-1 3.9 18:34:04 25° NNE 18:36:06 87° ESE 18:39:41 10° SSW
CZ-4B R/B 3.3 18:34:00 10° N 18:36:55 29° WNW 18:39:45 10° SW
Cosmos 468 4.5 18:32:29 10° NNW 18:37:43 62° ENE 18:41:13 21° SE
CZ-2C R/B 3.0 18:33:45 13° NNE 18:38:26 44° E 18:43:46 10° S
Cosmos 494 Rocket 4.2 18:36:40 10° NNW 18:41:38 46° ENE 18:42:29 42° E
Cosmos 2150 Rocket 4.0 18:39:51 10° S 18:44:50 52° ESE 18:45:58 43° ENE
MOS 1 Rocket 4.1 18:40:44 10° N 18:44:50 45° WNW 18:48:58 10° SW
Cosmos 1048 Rocket 3.8 18:41:34 10° NNW 18:46:43 71° ENE 18:49:36 26° SE
Cosmos-2242 3.9 18:42:44 10° NNW 18:46:54 51° W 18:51:05 10° S
COSMO-SKYMED 1 4.2 18:46:05 10° N 18:50:01 34° WNW 18:53:56 10° SW
Cosmos 2297 4.5 18:47:30 10° S 18:51:24 33° SE 18:51:24 33° SE
SL-08 RB Rocket 3.5 18:59:18 41° SSE 19:00:52 84° ENE 19:05:22 10° NNW
CSL-04 Debris 4.3 18:57:41 10° S 19:03:03 73° WSW 19:08:28 10° NNW
Helios 1A Rocket 3.9 19:01:57 10° S 19:05:57 47° W 19:10:00 10° NNW
Cosmos 2221 4.3 19:02:14 10° N 19:03:42 20° N 19:03:42 20° N
H-2A R/B 3.1 19:02:54 10° S 19:07:45 46° W 19:12:46 10° NNW
Cosmos 1833 Rocket 4.2 19:03:35 10° NW 19:08:39 36° WSW 19:13:42 10° S
Cosmos 1125 Rocket 3.6 19:04:21 10° S 19:08:41 55° SSE 19:08:41 55° SSE
Cosmos 1809 Rocket 4.3 19:03:51 10° S 19:09:58 81° E 19:16:10 10° N
Cosmos 2298 Rocket 3.9 19:06:48 10° SSW 19:12:08 87° WNW 19:13:35 50° NNE
Cosmos 2266 Rocket 3.8 19:07:55 10° S 19:14:09 79° E 19:20:18 10° N
YAOGAN 1 4.4 19:12:15 10° SSW 19:16:04 30° W 19:19:55 10° NNW
NOSS 2-2 (C) 4.3 19:14:06 10° NW 19:19:27 73° NE 19:20:07 67° E
In-Cosmos 22 Rocket 4.3 19:18:08 10° SSW 19:23:54 75° WNW 19:29:35 10° N
X-37B 3.6 19:22:51 10° WSW 19:23:54 15° WSW 19:23:54 15° WSW
Cosmos 1943 Rocket 4.3 19:22:45 10° S 19:23:18 13° S 19:23:18 13° S
Cosmos 2082 Rocket 3.2 19:23:21 10° NW 19:28:47 45° WSW 19:33:42 12° S
ISS -1.1 19:25:42 10° WNW 19:26:49 19° WNW 19:26:49 19° WNW
Cosmos 1241 Rocket 4.5 19:25:30 10° SW 19:32:00 84° NW 19:33:16 61° NNE
CZ-4 R/B 4.4 19:32:28 10° SW 19:34:53 15° W 19:37:19 10° NW
MetOp-A 4.4 19:37:46 62° NNW 19:37:46 62° NNW 19:42:16 10° NNW
ATLAS 5 CENTAUR R/B 4.2 19:41:03 10° NNW 19:42:29 14° N 19:42:29 14° N
Cosmos 2315 Rocket 4.0 19:39:58 10° NNW 19:46:14 78° W 19:46:33 75° SW
ATLAS 2AS CENTAUR R/B 4.1 19:42:11 10° NW 19:48:21 27° NNE 19:48:21 27° NNE
USA 234 3.7 19:53:13 48° N 19:53:13 48° N 19:58:57 10° NW
Cosmos 2278 Rocket 4.0 19:51:41 10° WSW 19:56:27 27° NW 19:59:05 19° N
CZ-4C R/B 4.0 19:52:34 10° NNW 19:56:58 28° N 19:56:58 28° N
USA 281 4.5 20:04:50 29° N 20:04:50 29° N 20:08:08 10° NNW
CZ-2C R/B 4.3 20:15:10 18° NNW 20:18:33 33° WNW 20:23:29 10° SW
